This is the latest recevied weather packets stored in our database for station/object WL7CLI. If no packets are shown the sender has not sent any weather packets the latest 10 day(s).
| Time | Temp. | Humidity | Pressure | Rain* | Wind** | Luminosity | Snow |
|---|---|---|---|---|---|---|---|
| 1777635535 | 3.89° C | 80% | 1017.5 hPa | 0 mm | - | - | - |
| 1777635372 | 3.89° C | 80% | 1017.5 hPa | 0 mm | - | - | - |
| 1777634904 | 3.89° C | 79% | 1016.7 hPa | 0 mm | - | - | - |
| 1777634334 | 3.89° C | 81% | 1017.4 hPa | 0 mm | - | - | - |
| 1777634171 | 3.89° C | 81% | 1017.4 hPa | 0 mm | - | - | - |
| 1777633134 | 3.33° C | 79% | 1017.5 hPa | 0 mm | - | - | - |
| 1777633104 | 3.89° C | 79% | 1016.7 hPa | 0 mm | - | - | - |
| 1777632973 | 3.89° C | 79% | 1017.5 hPa | 0 mm | - | - | - |
| 1777631933 | 3.89° C | 77% | 1017.4 hPa | 0 mm | - | - | - |
| 1777631772 | 3.89° C | 77% | 1017.5 hPa | 0 mm | - | - | - |
| 1777631304 | 3.89° C | 77% | 1017 hPa | 0 mm | - | - | - |
| 1777630733 | 3.89° C | 77% | 1017.5 hPa | 0 mm | - | - | - |
| 1777630572 | 3.89° C | 77% | 1017.5 hPa | 0 mm | - | - | - |
| 1777629534 | 3.89° C | 79% | 1017.5 hPa | 0 mm | - | - | - |
| 1777629504 | 3.89° C | 79% | 1016.9 hPa | 0 mm | - | - | - |
| 1777629373 | 3.89° C | 79% | 1017.5 hPa | 0 mm | - | - | - |
| 1777628334 | 4.44° C | 76% | 1017.5 hPa | 0 mm | - | - | - |
| 1777628171 | 4.44° C | 76% | 1017.6 hPa | 0 mm | - | - | - |
| 1777627704 | 4.44° C | 77% | 1017 hPa | 0 mm | - | - | - |
| 1777627134 | 4.44° C | 76% | 1017.5 hPa | 0 mm | - | - | - |
| 1777626973 | 4.44° C | 76% | 1017.5 hPa | 0 mm | - | - | - |
| 1777626185 | 5° C | 75% | 1017.6 hPa | 0 mm | - | - | - |
| 1777625933 | 5° C | 75% | 1017.6 hPa | 0 mm | - | - | - |
| 1777625904 | 5° C | 75% | 1016.9 hPa | 0 mm | - | - | - |
| 1777625772 | 5° C | 76% | 1017.5 hPa | 0 mm | - | - | - |
* Rain latest hour (hover to see other rain measurements)
** Current wind speed in m/s (hover to see current wind gust speed)